Location: JAPAN
(35.1974°N, 137.0216°E)
Time: 22:09:21
(UTC+09:00)

ISS - Visible Passes

Search period start: 24 January 2019 00:00
Search period end: 03 February 2019 00:00
Orbit: 404 x 410 km, 51.6° (Epoch: 24 January)

Date Brightness Start Highest point End Pass type
(mag) Time Alt. Az. Time Alt. Az. Time Alt. Az.
24 Jan -2.9 18:02:29 10° WSW 18:05:39 45° NW 18:08:25 13° NNE visible
25 Jan -1.2 18:49:34 10° NW 18:51:12 13° NNW 18:52:03 12° N visible
26 Jan -1.6 17:57:05 10° W 17:59:36 20° NNW 18:02:07 10° NNE visible
28 Jan -1.1 17:52:47 10° NW 17:53:41 11° NNW 17:54:35 10° N visible
